Board Camp, AR

7:02 AM CST on February 14, 2016 (GMT -0600)
Mena

Weather History for KMEZ - December, 2011

Change the Weather History Date:

Saturday, December 3, 2011

  Actual Average (KDEQ) Record (KDEQ)
Temperature  
Mean Temperature 58 °F 45 °F  
Max Temperature 66 °F 58 °F 82 °F (2005)
Min Temperature 50 °F 32 °F 19 °F (1976)
Degree Days  
Heating Degree Days 7 20  
Month to date heating degree days 59  
Since 1 July heating degree days 585  
Cooling Degree Days 0 0  
Month to date cooling degree days 0  
Year to date cooling degree days 1941  
Growing Degree Days 8 (Base 50)    
Moisture  
Dew Point 49 °F    
Average Humidity 69    
Maximum Humidity 88    
Minimum Humidity 44    
Precipitation  
Precipitation 0.13 in 0.12 in 5.71 in (1993)
Month to date precipitation 0.37  
Year to date precipitation 45.00  
Snow  
Snow 0.00 in - - ()
Month to date snowfall  
Since 1 July snowfall  
Snow Depth -    
Sea Level Pressure  
Sea Level Pressure 30.11 in    
Wind  
Wind Speed 6 mph (SE)    
Max Wind Speed 16 mph    
Max Gust Speed 30 mph    
Visibility 10 miles    
Events Rain    
T = Trace of Precipitation, MM = Missing Value Source: NWS Daily Summary

Daily Weather History Graph

Daily Weather History Graph

Search for Another Location

Airport or City:

Trip Planner

Search our weather history database for the weather conditions in past years. The results will help you decide how hot, cold, wet, or windy it might be!

Date:

Astronomy

Dec. 03, 2011 Rise Set
Actual Time 7:06 AM CST 5:06 PM CST
Civil Twilight 6:39 AM CST 5:33 PM CST
Nautical Twilight 6:08 AM CST 6:04 PM CST
Astronomical Twilight 5:37 AM CST 6:35 PM CST
Moon 12:58 PM CST (12/3) 12:49 AM CST (12/3)
Length of Visible Light 10h 54m
Length of Day
9h 59m
Waxing Gibbous, 63% of the Moon is Illuminated
Dec 3
Waxing Gibbous
Dec 10
Full
Dec 17
Last Quarter
Dec 24
New
Jan 1
First Quarter

Hourly Weather History & Observations

Time (CST) Temp. Dew Point Humidity Pressure Visibility Wind Dir Wind Speed Gust Speed Precip Events Conditions
12:15 AM 51.8 °F 39.2 °F 62% 30.26 in 10.0 mi Calm Calm - N/A   Scattered Clouds
12:35 AM 53.6 °F 35.6 °F 51% 30.25 in 10.0 mi East 3.5 mph - N/A   Scattered Clouds
12:55 AM 51.8 °F 35.6 °F 54% 30.24 in 10.0 mi East 3.5 mph - N/A   Clear
1:15 AM 53.6 °F 32.0 °F 44% 30.23 in 10.0 mi Calm Calm - N/A   Scattered Clouds
1:35 AM 53.6 °F 32.0 °F 44% 30.21 in 10.0 mi Calm Calm - N/A   Scattered Clouds
1:55 AM 53.6 °F 32.0 °F 44% 30.19 in 10.0 mi Calm Calm - N/A   Mostly Cloudy
2:15 AM 53.6 °F 32.0 °F 44% 30.20 in 10.0 mi Calm Calm - N/A   Scattered Clouds
2:35 AM 55.4 °F 33.8 °F 44% 30.19 in 10.0 mi East 3.5 mph - N/A   Clear
2:55 AM 51.8 °F 33.8 °F 50% 30.19 in 10.0 mi Calm Calm - N/A   Clear
3:15 AM 51.8 °F 35.6 °F 54% 30.19 in 10.0 mi NNE 4.6 mph - N/A   Scattered Clouds
3:35 AM 50.0 °F 35.6 °F 58% 30.19 in 10.0 mi NNE 3.5 mph - N/A   Scattered Clouds
3:55 AM 50.0 °F 35.6 °F 58% 30.20 in 10.0 mi NE 4.6 mph - N/A   Clear
4:15 AM 50.0 °F 35.6 °F 58% 30.19 in 10.0 mi ESE 4.6 mph - N/A   Clear
4:35 AM 51.8 °F 37.4 °F 58% 30.19 in 10.0 mi SE 6.9 mph - N/A   Clear
4:55 AM 57.2 °F 41.0 °F 55% 30.19 in 10.0 mi SE 6.9 mph - N/A   Clear
5:15 AM 57.2 °F 42.8 °F 59% 30.18 in 10.0 mi SE 8.1 mph - N/A   Clear
5:35 AM 57.2 °F 44.6 °F 63% 30.19 in 10.0 mi SSE 6.9 mph - N/A   Mostly Cloudy
6:15 AM 57.2 °F 46.4 °F 67% 30.16 in 10.0 mi ESE 3.5 mph - N/A   Mostly Cloudy
6:35 AM 59.0 °F 46.4 °F 63% 30.17 in 10.0 mi SSE 11.5 mph 17.3 mph N/A   Overcast
6:55 AM 59.0 °F 46.4 °F 63% 30.18 in 10.0 mi SE 8.1 mph - N/A   Overcast
7:15 AM 59.0 °F 46.4 °F 63% 30.18 in 10.0 mi SE 10.4 mph 16.1 mph N/A   Overcast
7:35 AM 59.0 °F 48.2 °F 67% 30.19 in 10.0 mi SSE 6.9 mph - N/A   Overcast
7:55 AM 59.0 °F 50.0 °F 72% 30.21 in 10.0 mi SSE 4.6 mph - N/A   Overcast
8:15 AM 59.0 °F 51.8 °F 77% 30.20 in 10.0 mi South 5.8 mph - N/A   Overcast
8:35 AM 59.0 °F 51.8 °F 77% 30.19 in 10.0 mi SSE 9.2 mph 21.9 mph N/A   Overcast
9:15 AM 60.8 °F 53.6 °F 77% 30.18 in 10.0 mi SE 6.9 mph - N/A   Overcast
9:35 AM 60.8 °F 53.6 °F 77% 30.17 in 10.0 mi SSE 9.2 mph 20.7 mph N/A   Overcast
10:15 AM 60.8 °F 53.6 °F 77% 30.15 in 10.0 mi SSE 11.5 mph 19.6 mph N/A   Overcast
10:35 AM 60.8 °F 53.6 °F 77% 30.13 in 10.0 mi SSE 10.4 mph 21.9 mph N/A   Overcast
10:55 AM 62.6 °F 53.6 °F 72% 30.11 in 10.0 mi SSE 13.8 mph 25.3 mph N/A   Mostly Cloudy
11:15 AM 62.6 °F 53.6 °F 72% 30.09 in 10.0 mi SE 12.7 mph 20.7 mph N/A   Scattered Clouds
11:35 AM 62.6 °F 53.6 °F 72% 30.09 in 10.0 mi SSE 12.7 mph 29.9 mph N/A   Mostly Cloudy
11:55 AM 60.8 °F 53.6 °F 77% 30.07 in 10.0 mi SSE 11.5 mph 23.0 mph N/A   Overcast
12:15 PM 62.6 °F 53.6 °F 72% 30.08 in 10.0 mi SSE 11.5 mph 20.7 mph N/A   Overcast
12:35 PM 62.6 °F 53.6 °F 72% 30.06 in 10.0 mi SSE 11.5 mph 19.6 mph N/A   Overcast
12:55 PM 62.6 °F 53.6 °F 72% 30.03 in 10.0 mi SE 8.1 mph 21.9 mph N/A   Overcast
1:15 PM 64.4 °F 53.6 °F 68% 30.01 in 10.0 mi SE 16.1 mph 28.8 mph N/A   Mostly Cloudy
1:55 PM 64.4 °F 53.6 °F 68% 30.00 in 10.0 mi SE 10.4 mph 25.3 mph N/A   Overcast
2:35 PM 64.4 °F 55.4 °F 73% 30.00 in 10.0 mi SSE 12.7 mph 21.9 mph N/A   Overcast
2:55 PM 64.4 °F 55.4 °F 73% 29.99 in 10.0 mi South 11.5 mph 23.0 mph N/A   Overcast
3:15 PM 64.4 °F 55.4 °F 73% 29.99 in 7.0 mi SSE 11.5 mph 20.7 mph N/A   Drizzle
3:35 PM 64.4 °F 55.4 °F 73% 29.99 in 10.0 mi SSE 13.8 mph 25.3 mph N/A   Mostly Cloudy
3:55 PM 64.4 °F 55.4 °F 73% 29.99 in 10.0 mi SSE 11.5 mph 20.7 mph N/A   Light Drizzle
4:15 PM 64.4 °F 55.4 °F 73% 29.99 in 10.0 mi SSE 15.0 mph 26.5 mph N/A   Mostly Cloudy
4:35 PM 64.4 °F 57.2 °F 77% 30.00 in 10.0 mi SSE 10.4 mph 21.9 mph N/A Rain Light Rain
4:55 PM 64.4 °F 59.0 °F 83% 30.00 in 5.0 mi SSE 9.2 mph 23.0 mph 0.01 in Rain Light Rain
5:15 PM 64.4 °F 59.0 °F 83% 30.00 in 10.0 mi SSE 13.8 mph 20.7 mph 0.03 in Rain Light Rain
5:35 PM 64.4 °F 59.0 °F 83% 30.00 in 10.0 mi SSE 11.5 mph 21.9 mph 0.03 in Rain Rain
5:55 PM 64.4 °F 59.0 °F 83% 30.00 in 10.0 mi SSE 15.0 mph 23.0 mph 0.03 in   Mostly Cloudy
6:15 PM 64.4 °F 59.0 °F 83% 30.00 in 10.0 mi South 13.8 mph 26.5 mph N/A   Light Drizzle
6:35 PM 64.4 °F 59.0 °F 83% 30.00 in 10.0 mi SSE 12.7 mph 26.5 mph N/A Rain Rain
6:55 PM 64.4 °F 59.0 °F 83% 30.00 in 10.0 mi SSE 10.4 mph 21.9 mph N/A   Mostly Cloudy
7:15 PM 66.2 °F 59.0 °F 78% 29.99 in 10.0 mi SSE 10.4 mph 21.9 mph N/A   Overcast
7:35 PM 66.2 °F 59.0 °F 78% 29.99 in 10.0 mi SSE 11.5 mph 23.0 mph N/A   Mostly Cloudy
8:15 PM 64.4 °F 60.8 °F 88% 30.00 in 7.0 mi South 11.5 mph 21.9 mph 0.09 in Rain Light Rain
8:35 PM 64.4 °F 60.8 °F 88% 30.00 in 10.0 mi SSE 15.0 mph 25.3 mph 0.09 in Rain Rain
8:55 PM 66.2 °F 60.8 °F 83% 30.00 in 10.0 mi South 10.4 mph 24.2 mph 0.09 in   Overcast
9:15 PM 66.2 °F 60.8 °F 83% 30.00 in 10.0 mi South 13.8 mph 25.3 mph N/A   Overcast
9:35 PM 66.2 °F 60.8 °F 83% 30.00 in 10.0 mi SSE 11.5 mph 25.3 mph N/A Rain Rain
9:55 PM 64.4 °F 60.8 °F 88% 30.02 in 7.0 mi West 12.7 mph - 0.09 in Rain Heavy Rain
10:15 PM 62.6 °F 60.8 °F 94% 30.04 in 5.0 mi West 15.0 mph 21.9 mph 0.19 in Rain Heavy Rain
10:35 PM 57.2 °F 55.4 °F 94% 30.05 in 7.0 mi West 21.9 mph 26.5 mph 0.28 in Rain Rain
10:55 PM 55.4 °F 53.6 °F 94% 30.06 in 5.0 mi West 16.1 mph - 0.30 in   Heavy Drizzle
11:15 PM 53.6 °F 51.8 °F 94% 30.06 in 7.0 mi West 13.8 mph - 0.03 in Rain Rain
11:35 PM 53.6 °F 51.8 °F 94% 30.08 in 5.0 mi West 12.7 mph - 0.09 in Rain Rain
11:55 PM 53.6 °F 51.8 °F 94% 30.08 in 7.0 mi Calm Calm - 0.21 in Rain Light Rain